This demonstration page uses our WeatherBlox Daily Observations layout. Learn more.

Left ArrowRight Arrow

34.16533, -84.80231

Hourly Observations for August 21, 2022

Temp ( °F °C ) Dew Point ( °F °C ) Humidity (%) Winds ( mph kmh ) Pressure ( in mb ) Visibility ( mi km ) Precip ( " mm )
12:15 am 00:15 Cloudy 73 23 70 21 89 89 Calm 30.08 1019 10 16 0.00 0.00
12:35 am 00:35 Cloudy with Heavy Rain 73 23 72 22 94 94 VRB 7 11 30.11 1020 0 0 0.00 0.00
12:55 am 00:55 Cloudy with Light Rain 72 22 72 22 100 100 Calm 30.10 1019 7 11 0.45 11.43
1:15 am 01:15 Partly Cloudy 72 22 72 22 100 100 VRB 5 7 30.10 1019 10 16 0.00 0.00
1:35 am 01:35 Mostly Cloudy 72 22 72 22 100 100 Calm 30.10 1019 10 16 0.00 0.00
1:55 am 01:55 Partly Cloudy 72 22 72 22 100 100 Calm 30.09 1019 10 16 0.03 0.76
2:15 am 02:15 Mostly Cloudy 72 22 72 22 100 100 ESE 3 6 30.09 1019 10 16 0.00 0.00
2:35 am 02:35 Cloudy 72 22 70 21 94 94 E 3 6 30.09 1019 10 16 0.00 0.00
2:55 am 02:55 Mostly Cloudy 72 22 70 21 94 94 VRB 3 6 30.09 1019 10 16 0.01 0.25
3:15 am 03:15 Mostly Clear 72 22 70 21 94 94 SSE 7 11 30.09 1019 10 16 0.00 0.00
3:35 am 03:35 Mostly Clear 72 22 70 21 94 94 SSE 7 11 30.09 1019 10 16 0.00 0.00
3:55 am 03:55 Mostly Cloudy 72 22 70 21 94 94 SSE 9 15 30.10 1019 10 16 0.01 0.25
4:15 am 04:15 Cloudy 72 22 70 21 94 94 SSE 7 11 30.09 1019 10 16 0.00 0.00
4:35 am 04:35 Mostly Cloudy 72 22 70 21 94 94 Calm 30.10 1019 10 16 0.00 0.00
4:55 am 04:55 Cloudy 72 22 70 21 94 94 Calm 30.09 1019 10 16 0.00 0.00
5:15 am 05:15 Cloudy with Light Rain 72 22 70 21 94 94 Calm 30.09 1019 6 10 0.00 0.00
5:35 am 05:35 Cloudy with Light Rain 72 22 70 21 94 94 Calm 30.09 1019 8 13 0.00 0.00
5:55 am 05:55 Cloudy 72 22 70 21 94 94 Calm 30.08 1019 9 14 0.01 0.25
6:15 am 06:15 Cloudy 72 22 70 21 94 94 Calm 30.09 1019 10 16 0.00 0.00
6:35 am 06:35 Cloudy 72 22 70 21 94 94 Calm 30.10 1019 10 16 0.00 0.00
6:55 am 06:55 Cloudy 72 22 70 21 94 94 Calm 30.10 1019 10 16 0.01 0.25
7:15 am 07:15 Cloudy 72 22 70 21 94 94 Calm 30.11 1020 10 16 0.00 0.00
7:35 am 07:35 Cloudy 72 22 70 21 94 94 Calm 30.11 1020 10 16 0.00 0.00
7:55 am 07:55 Mostly Cloudy 72 22 70 21 94 94 Calm 30.11 1020 10 16 0.00 0.00
8:15 am 08:15 Mostly Sunny 72 22 72 22 100 100 Calm 30.11 1020 9 14 0.00 0.00
8:35 am 08:35 Partly Cloudy 72 22 72 22 100 100 Calm 30.11 1020 10 16 0.00 0.00
8:55 am 08:55 Mostly Cloudy 73 23 72 22 94 94 Calm 30.10 1019 10 16 0.01 0.25
9:15 am 09:15 Cloudy 73 23 72 22 94 94 Calm 30.10 1019 9 14 0.00 0.00
9:35 am 09:35 Cloudy 73 23 72 22 94 94 WSW 6 9 30.10 1019 10 16 0.00 0.00
9:55 am 09:55 Cloudy 73 23 72 22 94 94 Calm 30.10 1019 10 16 0.01 0.25
10:15 am 10:15 Cloudy 75 24 72 22 89 89 W 6 9 30.11 1020 10 16 0.00 0.00
10:35 am 10:35 Cloudy 75 24 72 22 89 89 VRB 5 7 30.11 1020 10 16 0.00 0.00
10:55 am 10:55 Cloudy 77 25 72 22 83 83 SW 5 7 30.10 1019 10 16 0.00 0.00
11:15 am 11:15 Partly Cloudy 77 25 72 22 83 83 SSW 6 9 30.10 1019 10 16 0.00 0.00
11:35 am 11:35 Mostly Cloudy 79 26 70 21 74 74 VRB 6 9 30.09 1019 10 16 0.00 0.00
11:55 am 11:55 Cloudy 79 26 70 21 74 74 VRB 5 7 30.09 1019 10 16 0.00 0.00
12:15 pm 12:15 Cloudy 79 26 70 21 74 74 VRB 5 7 30.09 1019 10 16 0.00 0.00
12:35 pm 12:35 Cloudy 79 26 70 21 74 74 SSW 5 7 30.09 1019 10 16 0.00 0.00
12:55 pm 12:55 Cloudy 79 26 70 21 74 74 Calm 30.08 1018 10 16 0.00 0.00
1:15 pm 13:15 Cloudy 79 26 72 22 79 79 SW 5 7 30.08 1018 10 16 0.00 0.00
1:35 pm 13:35 Cloudy 81 27 72 22 74 74 W 5 7 30.06 1018 10 16 0.00 0.00
1:55 pm 13:55 Cloudy 79 26 72 22 79 79 VRB 5 7 30.07 1018 10 16 0.00 0.00
2:15 pm 14:15 Cloudy with Light Rain 79 26 73 23 84 84 NW 5 7 30.06 1018 8 13 0.00 0.00
2:35 pm 14:35 Mostly Cloudy 81 27 73 23 79 79 W 6 9 30.04 1017 10 16 0.00 0.00
2:55 pm 14:55 Partly Cloudy 81 27 73 23 79 79 Calm 30.04 1017 10 16 0.00 0.00
3:15 pm 15:15 Cloudy 81 27 73 23 79 79 Calm 30.04 1017 10 16 0.00 0.00
3:35 pm 15:35 Mostly Cloudy 82 28 73 23 74 74 W 7 11 30.02 1017 10 16 0.00 0.00
3:55 pm 15:55 Sunny 84 29 73 23 70 70 W 9 15 30.01 1016 10 16 0.00 0.00
4:15 pm 16:15 Sunny 84 29 72 22 66 66 W 5 7 30.00 1016 10 16 0.00 0.00
4:35 pm 16:35 Mostly Sunny 82 28 72 22 70 70 WNW 7 11 30.00 1016 10 16 0.00 0.00
4:55 pm 16:55 Sunny 82 28 73 23 74 74 W 7 11 30.00 1016 10 16 0.00 0.00
5:15 pm 17:15 Mostly Sunny 82 28 72 22 70 70 VRB 6 9 29.99 1016 10 16 0.00 0.00
5:35 pm 17:35 Sunny 82 28 73 23 74 74 W 5 7 29.99 1016 10 16 0.00 0.00
5:55 pm 17:55 Sunny 81 27 73 23 79 79 WNW 6 9 29.99 1016 10 16 0.00 0.00
6:15 pm 18:15 Sunny 81 27 73 23 79 79 WNW 5 7 30.01 1016 10 16 0.00 0.00
6:35 pm 18:35 Sunny 81 27 73 23 79 79 W 7 11 30.01 1016 10 16 0.00 0.00
6:55 pm 18:55 Sunny 81 27 73 23 79 79 W 5 7 30.01 1016 10 16 0.00 0.00
7:15 pm 19:15 Sunny 81 27 73 23 79 79 Calm 29.99 1016 10 16 0.00 0.00
7:35 pm 19:35 Sunny 79 26 73 23 84 84 W 3 6 30.00 1016 10 16 0.00 0.00
7:55 pm 19:55 Sunny 79 26 73 23 84 84 Calm 30.00 1016 10 16 0.00 0.00
8:15 pm 20:15 Sunny 79 26 73 23 84 84 Calm 30.00 1016 10 16 0.00 0.00
8:35 pm 20:35 Clear 77 25 73 23 89 89 Calm 30.00 1016 10 16 0.00 0.00
8:55 pm 20:55 Clear 77 25 73 23 89 89 Calm 30.01 1016 10 16 0.00 0.00
9:15 pm 21:15 Clear 77 25 73 23 89 89 ESE 3 6 30.01 1016 10 16 0.00 0.00
9:35 pm 21:35 Clear 77 25 73 23 89 89 Calm 30.02 1017 10 16 0.00 0.00
9:55 pm 21:55 Mostly Clear 77 25 73 23 89 89 Calm 30.02 1017 10 16 0.00 0.00
10:15 pm 22:15 Clear 75 24 73 23 94 94 Calm 30.03 1017 10 16 0.00 0.00
10:35 pm 22:35 Clear 75 24 73 23 94 94 Calm 30.03 1017 10 16 0.00 0.00
10:55 pm 22:55 Clear 75 24 73 23 94 94 Calm 30.03 1017 10 16 0.00 0.00
11:15 pm 23:15 Clear 75 24 73 23 94 94 Calm 30.03 1017 9 14 0.00 0.00
11:35 pm 23:35 Clear 73 23 73 23 100 100 Calm 30.03 1017 8 13 0.00 0.00
11:55 pm 23:55 Clear 73 23 73 23 100 100 Calm 30.03 1017 8 13 0.00 0.00

Powered by AerisWeather